Flag Weather past 2 weeks in Lörrach, Baden-Württemberg, Germany

Now
39 °F

Partly sunny.


Feels Like: 36 °F
Forecast: 40 / 51 °F
Wind: 5 mph from East

Location: Bale-Mulhouse

Current Time: Nov 29, 2014 at 11:21:46 AM

Latest Report: Nov 29, 2014 at 11:00 AM


Visibility: N/A

Pressure: 29.92 "Hg

Humidity: 87%

Dew point: 36 °F

Location of LörrachLocation

Historic Weather in Lörrach — Graph

°F

Lörrach temperature yesterday

Maximum temperature yesterday: 45 °F (at 12:00 AM)
Minimum temperature yesterday: 39 °F (at 9:30 PM)
Average temperature yesterday: 43 °F

Past Weeks' High & Low Weather Summary

 TemperatureHumidityPressure
High59 °F (Nov 24, 2:30 PM)100% (Nov 15, 11:00 PM)30.27 "Hg (Nov 15, 11:00 PM)
Low32 °F (Nov 20, 2:00 AM)63% (Nov 16, 2:30 PM)29.59 "Hg (Nov 15, 2:00 AM)
Average46 °F90%29.94 "Hg
* Reported Nov 14 10:14 AM — Nov 29 10:00 AM, Lörrach, Weather by CustomWeather, © 2014

Note: Actual official high and low records may vary slightly from our data, if they occured in-between our weather recording intervals... More about our weather records

Advertising

Lörrach weather history for previous 24 hours

 ConditionsComfort  
Time TempWeatherWind HumidityBarometerVisibility
10:00 AM
Nov 29
39 °FPartly sunny.6 mph87%29.92 "HgN/A
9:30 AM39 °FPartly sunny.6 mph87%29.92 "HgN/A
9:00 AM39 °FPartly sunny.6 mph87%29.92 "HgN/A
8:30 AM39 °FBroken clouds.7 mph87%29.89 "HgN/A
8:00 AM39 °FBroken clouds.7 mph87%29.89 "HgN/A
7:30 AM39 °FPartly cloudy.7 mph87%29.89 "HgN/A
7:00 AM39 °FPartly cloudy.8 mph87%29.89 "HgN/A
6:30 AM39 °FPartly cloudy.5 mph93%29.89 "HgN/A
6:00 AM39 °FPassing clouds.7 mph93%29.89 "HgN/A
5:30 AM39 °FPartly cloudy.7 mph87%29.86 "HgN/A
5:00 AM41 °FLow clouds.5 mph87%29.86 "HgN/A
4:30 AM41 °FOvercast.5 mph87%29.86 "HgN/A
4:00 AM39 °FOvercast.6 mph93%29.86 "HgN/A
3:30 AM39 °FOvercast.6 mph93%29.86 "HgN/A
3:00 AM39 °FMostly cloudy.3 mph100%29.86 "HgN/A
2:30 AM39 °FMostly cloudy.2 mph100%29.86 "HgN/A
2:00 AM39 °FFog.3 mph100%29.86 "Hg2 mi
1:30 AM39 °FFog.5 mph100%29.86 "Hg3 mi
1:00 AM39 °FFog.3 mph100%29.86 "Hg2 mi
12:30 AM39 °FFog.5 mph100%29.86 "Hg2 mi
12:00 AM39 °FFog.7 mph100%29.86 "Hg2 mi
11:30 PM
Nov 28
39 °FFog.6 mph100%29.86 "Hg2 mi
11:00 PM39 °FFog.7 mph100%29.83 "Hg2 mi
10:30 PM39 °FFog.7 mph100%29.83 "Hg2 mi
9:30 PM39 °FFog.9 mph93%29.83 "Hg2 mi
9:00 PM41 °FFog.9 mph93%29.80 "Hg2 mi
8:30 PM41 °FFog.7 mph93%29.80 "Hg3 mi
8:00 PM41 °FFog.8 mph93%29.80 "Hg2 mi
7:30 PM41 °FPassing clouds.10 mph93%29.77 "Hg4 mi
7:00 PM43 °FPassing clouds.9 mph93%29.77 "Hg4 mi
6:30 PM43 °FPassing clouds.8 mph93%29.77 "Hg4 mi
6:00 PM43 °FFog.6 mph93%29.77 "Hg2 mi
5:30 PM43 °FFog.9 mph93%29.74 "Hg1 mi
5:00 PM43 °FFog.8 mph93%29.74 "Hg1 mi
4:30 PM43 °FFog.8 mph93%29.74 "Hg1 mi
4:00 PM43 °FFog.8 mph93%29.74 "Hg1 mi
3:30 PM43 °FFog.9 mph93%29.71 "Hg2 mi
3:07 PM43 °FFog.7 mph100%29.71 "HgN/A
2:30 PM45 °FFog.8 mph93%29.71 "HgN/A
2:18 PM45 °FPartly sunny.7 mph93%29.71 "HgN/A
2:04 PM45 °FPartly sunny.6 mph87%29.71 "HgN/A
2:00 PM45 °FPartly sunny.6 mph87%29.71 "HgN/A
1:36 PM45 °FPartly sunny.5 mph87%29.71 "HgN/A
1:00 PM45 °FPartly sunny.6 mph87%29.74 "HgN/A
12:30 PM45 °FPartly sunny.5 mph81%29.74 "HgN/A
12:00 PM45 °FPartly sunny.6 mph81%29.74 "HgN/A
11:00 AM43 °FPartly sunny.8 mph87%29.74 "HgN/A
Weather by CustomWeather, © 2014

See weather overviewHow to use our weather pages